www.pogodaiklimat.ru

Погода и климат >> Архив погоды >> Беларусь >> Ивацевичи


ПОГОДА в Ивацевичах

  • Прогноз погоды в Ивацевичах
  • Монитор погоды в Ивацевичах

АРХИВ ПОГОДЫ в Ивацевичах

Время (UTC), дата Ветер
(напр.,м/с)
 
Видим.   Явления Облачность Т
(С)
Тd
(С)
f
(%)
Тe
(С)
Тes
(С)
Комфортность P
(гПа)
Po
(гПа)
Тmin
(С)
Tmax
(С)
R
(мм)
R24
(мм)
S
(см)
15 15.01 З 3 12 км 8/3 600 м
[Sc Ac trans]
-3.3 -5.6 84 -9 -9 996.9 977.5
18 15.01 З 4 12 км 9/0 2000 м
[Ac trans]
-2.3 -4.5 85 -8 -8 997.2 977.9 -1.2 4 10
21 15.01 З 2 н/о н/о -2.1 -4.4 84 -6 -6 998.0 978.6
00 16.01 З 3 н/о н/о -2.2 -4.2 86 -7 -7 997.0 977.6
03 16.01 СЗ 1 н/о н/о -2.7 -4.0 91 -5 -5 997.0 977.5 -2.7
06 16.01 С 2 12 км 9/9 800 м
[Sc]
-3.0 -4.6 89 -7 -7 1000.4 981.0 -3.5 0.3 10
09 16.01 СЗ 1 12 км слаб. снег 10/0 2000 м
[Ac As]
-2.0 -4.2 85 -4 -4 1004.3 984.9
12 16.01 З 1 20 км {снег} 9/9 800 м
[Sc]
-0.5 -3.8 78 -2 -2 1005.6 986.2
15 16.01 Ю 1 20 км 9/9 800 м
[Sc]
-1.8 -3.9 86 -4 -4 1006.8 987.3
18 16.01 ЮЗ 1 12 км 9/9 800 м
[Sc]
-1.4 -2.9 90 -4 -4 1006.7 987.3 -0.3 0.0 9
21 16.01 Ю 2 н/о н/о -1.1 -2.1 93 -5 -5 1006.0 986.5
00 17.01 ЮЗ 4 н/о н/о +1.0 +0.9 99 -4 -4 1005.0 985.7
03 17.01 ЮЗ 4 н/о н/о +1.8 +1.7 99 -4 -4 1004.0 984.7 -1.5
06 17.01 ЮЗ 5 6000 м дымка 10/10 660 м
[Sc]
+1.7 +0.6 92 -4 -4 1001.4 982.3 -1.5 0.3 6
09 17.01 ЮЗ 5
{11}
12 км 10/10 660 м
[Sc]
+2.2 +0.1 86 -3 -3 1000.5 981.4
12 17.01 ЮЗ 5
{10}
10 км 10 баллов +3.0 -0.6 77 -2 -2 999.0 979.9
15 17.01 З 5
{11}
20 км 10/10 660 м
[Sc]
+2.8 -0.9 77 -2 -2 1000.2 981.2
18 17.01 З 3
{10}
20 км 10/10 630 м
[Sc]
+2.6 +0.5 86 -2 -2 1001.9 982.8 +3.5 4
21 17.01 ЮЗ 4 н/о н/о +2.8 +0.4 84 -2 -2 1003.0 983.8
00 18.01 ЮЗ 3 н/о н/о +2.2 -0.1 85 -2 -2 1003.0 983.8
03 18.01 ЮЗ 3 н/о н/о +1.6 +0.3 91 -3 -3 1002.0 982.7 +1.6
06 18.01 ЮЗ 3 15 км 10/10 960 м
[Sc]
+2.4 -0.1 84 -2 -2 1001.5 982.4 +1.3 2
09 18.01 ЮЗ 6-10
{11}
20 км 9/9 800 м
[Sc]
+3.0 -0.7 77 -3 -3 1003.0 983.9
12 18.01 ЮЗ 4-10
{12}
20 км 9/8 800 м
[Sc Ac trans]
+2.1 -2.8 70 -3 -2 1004.5 985.4
15 18.01 СЗ 2
{12}
20 км {ливн. осадки} 3/3 600 м
[]
-1.0 -6.0 69 -4 -4 1010.3 990.8
18 18.01 З 3 20 км {ливн. осадки} 9/0 2000 м
[Ac trans]
-1.5 -5.5 74 -6 -6 1013.1 993.5 +3.2 0.3 2
21 18.01 З 3 н/о н/о -1.2 -4.4 79 -6 -6 1015.0 995.3
00 19.01 З 3 н/о н/о -1.8 -4.6 81 -7 -7 1016.0 996.2
03 19.01 З 2 н/о н/о -3.9 -5.7 87 -8 -8 1017.0 997.0 -3.9
06 19.01 З 2 10 км 9/9 800 м
[Sc]
-4.5 -5.9 90 -9 -9 1018.6 998.7 -4.6 0.0 2
09 19.01 З 3 20 км 4/4 600 м
[Sc]
-3.0 -5.6 82 -8 -7 1020.0 1000.2
12 19.01 З 3 20 км 9/9 840 м
[Sc]
-1.7 -6.1 72 -6 -6 1020.6 1000.9
15 19.01 З 2 20 км 10/10 840 м
[Sc]
-1.5 -6.3 70 -5 -5 1021.2 1001.5
18 19.01 З 1 20 км 9/0 2000 м
[Ac trans]
-2.2 -6.5 72 -4 -4 1021.9 1002.1 -1.1 2
21 19.01 ЮЗ 2 н/о н/о -2.1 -7.0 69 -6 -6 1022.0 1002.1
00 20.01 ЮЗ 3 н/о н/о -2.5 -7.2 70 -7 -7 1022.0 1002.0
03 20.01 ЮЗ 2 н/о н/о -3.3 -8.2 69 -7 -7 1021.0 1001.0 -3.3
06 20.01 ЮЗ 2 20 км 10/10 700 м
[Sc]
-3.5 -7.7 73 -7 -7 1019.5 999.6 -3.9 2
09 20.01 ЮЗ 3 20 км 4/0
[Ci fib]
-3.7 -7.8 73 -9 -7 1019.6 999.7
12 20.01 ЮЗ 2 20 км 8/3 600 м
[Sc Ac trans]
-2.0 -7.1 68 -6 -5 1018.0 998.3
15 20.01 З 3 20 км 10/10 600 м
[St]
-3.0 -7.2 73 -8 -8 1017.5 997.7
18 20.01 ЮЗ 3 20 км 4/0
[Ci fib]
-3.4 -6.8 77 -9 -9 1016.8 997.0 -1.7 1
21 20.01 З 3 н/о н/о -3.0 -5.8 81 -8 -8 1018.0 998.1
00 21.01 СЗ 2 н/о н/о -2.8 -5.3 83 -7 -7 1018.0 998.1
03 21.01 СЗ 1 н/о н/о -4.2 -5.9 88 -7 -7 1019.0 999.0 -4.3
06 21.01 З 1 10 км 3/0
[Ci sp]
-6.8 -7.6 94 -9 -9 1020.3 1000.2 -6.8 1
09 21.01 ЮЗ 1 12 км 9/0 2000 м
[Ac lent]
-5.3 -6.2 93 -8 -7 1021.6 1001.6
12 21.01 З 1 10 км 10 баллов -2.1 -5.6 77 -4 -4 1021.0 1001.1
15 21.01 З 2 10 км 3 балла -4.8 -6.3 89 -9 -9 1021.0 1000.9
18 21.01 ЮЗ 3 10 км 10 баллов -4.4 -5.9 89 -10 -10 1021.0 1000.9 -1.8 1
21 21.01 ЮЗ 3 н/о н/о -3.7 -5.5 87 -9 -9 1021.0 1001.0
00 22.01 ЮЗ 2 н/о н/о -3.9 -5.0 92 -8 -8 1020.0 1000.0
03 22.01 ЮЗ 1 н/о н/о -3.3 -4.3 93 -6 -6 1020.0 1000.0 -4.5
06 22.01 ЮЗ 2 10 км 10 баллов -3.9 -5.4 89 -8 -8 1020.0 1000.0 -4.5 0.3 1
09 22.01 штиль 0 10 км 10 баллов -3.2 -5.2 86 -4 -4 1020.0 1000.0
12 22.01 ЮЗ 1 10 км 10 баллов -3.2 -5.7 83 -5 -5 1019.0 999.1

 

Местоположение метеостанции Ивацевичи (Брестская область, Беларусь): широта 52.70 долгота 25.36 высота над уровнем моря 156 м.

В архиве по умолчанию представлена погода в Ивацевичах за последнюю неделю. Архивные данные за месяц целиком и за предыдущие месяцы, начиная с января 2011 года, Вы можете получить, выбрав интересующий диапазон дат из раскрывающегося списка и нажав кнопку "Ввод!".


*Определитесь, кто Вы:
робот инопланетянин человек

Внимание! Время в таблицах - всемирное. Для получения местного времени необходимо прибавить поправку, которая равна 3 ч.

Смотрите также архив погоды в соседних городах и на ближайших метеорологических станциях:

Погода в Дрогичине (Брестская область, Беларусь) (58 км)
Погода в Пружанах (Брестская область, Беларусь) (61 км)
Погода в Барановичах (Брестская область, Беларусь) (63 км)
Погода в Ганцевичах (Брестская область, Беларусь) (73 км)
Погода в Пинске (Брестская область, Беларусь) (80 км)
Погода в Волковыске (Гродненская область, Беларусь) (80 км)
Погода в Полесской (Брестская область, Беларусь) (101 км)
Погода в Новогрудке (Гродненская область, Беларусь) (105 км)
Погода в Любешове (Волынская область, Украина) (115 км)
Погода в Столбцах (Минская область, Беларусь) (126 км)

Пояснения к столбцам:

Ветер - указаны скорость ветра в м/с - средняя за 10 мин, порывы в срок и между сроками (в фигурных скобках) и направление, откуда дует ветер: С - северный, СВ - северо-восточный, В - восточный, ЮВ - юго-восточный, Ю - южный, ЮЗ - юго-западный, З - западный, СЗ - северо-западный.
Видимость - горизонтальная дальность видимости в метрах или километрах. При видимости от 1 до 10 км при отсутствии осадков обычно наблюдается дымка, при ухудшении видимости до 1 км и менее - туман. В сухую погоду видимость может ухудшаться дымом, пылью или мглою.
Явления - указаны атмосферные явления, наблюдавшиеся в срок или в последний час перед сроком; фигурными скобками обозначены явления, наблюдавшиеся между сроками (за 1-3 часа до срока); квадратными скобками обозначены град или гололедные отложения с указанием их диаметра в мм.
Облачность - указаны через наклонную черту общая и нижняя облачность в баллах и высота нижней границы облаков в метрах; квадратными скобками обозначены формы облаков: Ci - перистые, Cs - перисто-слоистые, Cc - перисто-кучевые, Ac - высококучевые, As - высокослоистые, Sc - слоисто-кучевые, Ns - слоисто-дождевые, Cu - кучевые, Cb - кучево-дождевые. Подробнее классификацию облаков см. в Атласе облаков (PDF).
T - Температура воздуха - температура, измеренная на высоте 2 м над землей.
Td - Температура точки росы - температура, при понижении до которой содержащийся в воздухе водяной пар достигнет насыщения.
f - Относительная влажность воздуха - влажноcть воздуха, измеренная на высоте 2 м над землей.
Te - Эффективная температура - температура, которую ощущает одетый по сезону человек в тени. Характеристика душности погоды. При расчете учитывается влияние влажности воздуха и скорости ветра на теплоощущения человека.
Tes - Эффективная температура на солнце - температура, которую ощущает человек, с поправкой на солнечный нагрев. Характеристика знойности погоды. Зависит от высоты солнца над горизонтом, облачности и скорости ветра. Ночью, в пасмурную погоду, а также при ветре 12 м/с и более поправка равна нулю.
P - Атмосферное давление - приведенное к уровню моря атмосферное давление.
Po - Атмосферное давление - измеренное на уровне метеостанции атмосферное давление.
Tmin - Минимальная температура - минимум температуры воздуха на высоте 2 м над землей.
Tmax - Максимальная температура - максимум температуры воздуха на высоте 2 м над землей.
R - Количество осадков - Количество выпавших осадков за период времени, мм. При наведении курсора мыши на число - период времени, за который выпало указанное количество осадков.
R24 - Количество осадков - Количество выпавших осадков за 24 часа, мм.
S - Снежный покров - Высота снежного покрова, см. При наведении курсора мыши на число - состояние снежного покрова и степень покрытия местности в баллах.